Location: Unspecified
(50.7693°N, 0.0000°E)
Time: 14:11:37
(UTC+00:00)

Vanguard 2 - Pass Details

Date: 20 June 2019
Orbit: 553 x 2938 km, 32.9° (Epoch: 15 July)

Event Time Altitude Azimuth Distance (km) Brightness Sun altitude
Rises 11:30:25 0° 246° (WSW) 4,042 11.3 62.0°
Reaches altitude 10° 11:33:18 10° 234° (SW) 3,382 11.1 62.1°
Maximum altitude 11:40:29 27° 180° (S) 2,950 11.6 62.4°
Drops below altitude 10° 11:50:48 10° 130° (SE) 4,973 12.1 62.6°
Sets 11:56:12 0° 121° (ESE) 6,324 12.4 62.6°
